Location: Mannheim
(49.4880°N, 8.4650°E)
Time: 07:23:54
(UTC+01:00)

ISS - Pass Details

Date: 23 November 2023
Orbit: 416 x 417 km, 51.6° (Epoch: 01 December)

Event Time Altitude Azimuth Distance (km) Brightness Sun altitude
Rises 18:13:34 0° 257° (WSW) 2,357 2.0 -15.5°
Reaches altitude 10° 18:15:40 10° 259° (W) 1,495 0.4 -15.9°
Maximum altitude 18:19:01 76° 346° (NNW) 437 -3.8 -16.4°
Enters shadow 18:19:59 43° 61° (ENE) 599 -3.5 -16.5°
